TJS-2 (41911 NORAD) Tracking and Keplerian Element Data

This shows tracking and keplerian element data for the satellite.

Feedback or suggestion? Click here.




ElementValue
Catalog41911
NameTJS-2
Epoch Orbit691
Epoch Day315.88178491
Epoch Year2018
RAAN96.187
Inclination0.4333
Eccentricity0.0002617
Argument of Perigee235.8535
Mean Anonmoly143.8824
Mean Motion1.00275703
Decay Rate-3.46E-06
L11 41911U 17001A 18315.88178491 -.00000346 00000-0 00000-0 0 9993
L22 41911 0.4333 96.1870 0002617 235.8535 143.8824 1.00275703 6910

Live tracking and technical data element details for TJS-2 (NORAD 41911). TJS-2 can be tracked NOW for your location showing map with azimuth and elevation plus other details from your city location.

Track the satellite on the map from your city or location and see movement details for azimuth, elevation, latitude, longitude, range, height, and movement on the map or in text.







IsCatalogInMostPopularTable: catalog: 41911, numindb: 124
Update: records affected: 1



GetName: 41911 TJS-2

Hit Count: updated at: Mon, 12 Nov 2018 18:40:49 GMT